Flag for U.S.A. Weather past 2 weeks in Grand Rapids, Michigan, U.S.A.

Now
85 °F

Overcast.


Feels Like: 87 °F
Forecast: 63 / 85 °F
Wind: 16 mph from South

Location: Kent County International Airport

Current Time: Jul 6, 2015 at 6:50:59 PM

Latest Report: Jul 6, 2015 at 5:53 PM


Visibility: 6 mi

Pressure: 29.90 "Hg

Humidity: 53%

Dew point: 66 °F

Location of Grand RapidsLocation

Historic Weather in Grand Rapids — Graph

°F

Grand Rapids temperature yesterday

Maximum temperature yesterday: 82 °F (at 3:53 PM)
Minimum temperature yesterday: 56 °F (at 6:53 AM)
Average temperature yesterday: 71 °F

Past Weeks' High & Low Weather Summary

 TemperatureHumidityPressure
High84 °F (Jul 6, 3:53 PM)96% (Jun 22, 1:57 PM)30.17 "Hg (Jun 22, 1:57 PM)
Low50 °F (Jul 3, 5:53 AM)35% (Jun 28, 5:53 PM)29.67 "Hg (Jun 22, 11:53 PM)
Average67 °F71%29.95 "Hg
* Reported Jun 21 4:53 PM — Jul 6 4:53 PM, Grand Rapids, Weather by CustomWeather, © 2015

Note: Actual official high and low records may vary slightly from our data, if they occured in-between our weather recording intervals... More about our weather records

Advertising

Grand Rapids weather history for previous 24 hours

 ConditionsComfort  
Time TempWeatherWind HumidityBarometerVisibility
4:53 PM
Mon, Jul 6
84 °FOvercast.10 mph51%29.92 "Hg6 mi
3:53 PM84 °FMore clouds than sun.12 mph53%29.93 "Hg6 mi
2:53 PM83 °FMore clouds than sun.12 mph55%29.94 "Hg6 mi
1:53 PM82 °FBroken clouds.9 mph56%29.97 "Hg6 mi
12:53 PM81 °FBroken clouds.14 mph58%30.00 "Hg6 mi
11:53 AM79 °FBroken clouds.13 mph62%30.01 "Hg7 mi
10:53 AM77 °FPartly sunny.12 mph69%30.00 "Hg6 mi
9:53 AM73 °FPartly sunny.9 mph74%30.03 "Hg7 mi
8:53 AM70 °FScattered clouds.7 mph79%30.04 "Hg6 mi
7:53 AM66 °FFog.8 mph87%30.02 "Hg5 mi
6:53 AM61 °FFog.9 mph93%30.01 "Hg4 mi
5:53 AM62 °FFog.8 mph90%30.01 "Hg6 mi
4:53 AM62 °FClear.6 mph90%30.04 "Hg7 mi
3:53 AM64 °FClear.5 mph84%30.05 "Hg8 mi
2:53 AM64 °FClear.7 mph87%30.02 "Hg7 mi
1:53 AM65 °FClear.6 mph87%30.01 "Hg7 mi
12:53 AM65 °FFog.7 mph91%30.02 "Hg6 mi
11:53 PM
Sun, Jul 5
67 °FClear.6 mph85%30.04 "Hg7 mi
10:53 PM71 °FClear.5 mph76%30.05 "Hg8 mi
9:53 PM73 °FPassing clouds.5 mph71%30.04 "Hg8 mi
8:53 PM75 °FScattered clouds.5 mph66%30.04 "Hg7 mi
7:53 PM79 °FScattered clouds.7 mph58%30.04 "Hg7 mi
6:53 PM81 °FScattered clouds.9 mph53%30.04 "Hg7 mi
Weather by CustomWeather, © 2015

See weather overviewHow to use our weather pages